Погода в Власти Труда

Россия / Самарская область     53°28′29″N   49°59′30″E
темп.,
°C
ветер,
м/с
пор.,
м/с
влажн.,
%
обл.,
%
осадки,
мм/ч
давл.,
гПа
погр.,
м
20 января, ср
ср2001:00−24юз229849 0.0 101620
04:00−24зюз229656 0.0 101724
07:00−24зюз229698 0.0 101731
10:00−23юз229665 0.0 101857
13:00−18юз249083 0.0 1018307
16:00−19юз239587 0.0 101868
19:00−22юз229759 0.0 102025
22:00−21юз229769 0.0 102131
21 января, чт
чт2101:00−22юз229978 0.0 102122
04:00−22юз229975 0.0 102221
07:00−21юз229872 0.0 102224
10:00−19юз239781 0.0 102377
13:00−14зюз359387 0.0 1022258
16:00−14зюз379393 0.1 1021273
19:00−14юз3794100 0.0 1021204
22:00−14зюз3693100 0.1 1020181
22 января, пт
пт2201:00−13юз2595100 0.1 1019179
04:00−13ююз3795100 0.6 1017302
07:00−15юз2294100 0.3 101872
10:00−16юз229599 0.3 101953
13:00−11з238886 0.0 1019338
16:00−12юз129293 0.0 101923
19:00−15ю129498 0.0 102020
22:00−14ю229590 0.0 102022
23 января, сб
сб2301:00−11ююв239697 0.2 1020111
04:00−9ююв349699 0.7 1019130
07:00−7ю2396100 0.4 101983
10:00−1ююз3997100 0.8 1019409
13:00+1юз51299100 0.4 1019557
16:00+1юз61397100 0.4 1018534
19:00+1юз5129399 0.0 1019430
22:00+1юз4109797 0.0 1020442
24 января, вс
вс2401:00+1юз41097100 0.0 1020396
04:00+1ююз3998100 0.0 1020365
07:00+1юз31098100 0.1 1020388
10:00+1юз3999100 0.6 1021289
13:00+1юз3899100 1.1 1021274
16:000юз3896100 1.3 1022329
19:00−1юз3996100 0.3 1023288
22:00−1ююз2696100 0.4 1024252